Probability
2 5 6 4 2 1 1 2 2 2 1 0 0 0 0 0 0 0 0 0 0 0 0 0 0 0 0 0 0 0 0 0 0 0 0 0 0 0 0 0 0 0 0
2 6 8 8 6 4 3 2 3 4 3 1 0 0 0 0 0 0 0 0 0 0 0 0 0 0 0 0 0 0 0 0 0 0 0 0 0 0 0 0 0 0 0
2 5 10 12 12 10 6 5 5 6 4 2 0 0 0 0 0 0 0 0 0 0 0 0 0 0 0 0 0 0 0 0 0 0 0 0 0 0 0 0 0 0 0
1 4 9 14 16 15 11 9 8 7 5 4 2 1 1 1 1 0 0 0 0 0 0 0 1 1 0 0 0 0 0 0 0 0 0 0 0 0 0 0 0 0 1
0 3 10 16 18 17 14 13 11 9 8 7 4 3 3 2 2 1 1 0 0 1 1 1 1 1 0 0 0 0 0 0 0 0 0 0 0 0 0 0 0 1 2
1 3 9 15 17 16 14 13 11 11 11 9 7 5 4 3 2 2 1 1 2 2 2 1 1 1 0 0 0 0 0 0 0 0 0 0 0 0 0 0 1 2 3
2 2 6 12 15 14 13 11 9 9 10 9 7 5 5 4 2 2 2 3 4 3 2 1 1 0 0 0 0 0 0 0 0 0 0 0 0 0 0 1 2 3 3
2 2 4 10 13 13 12 9 7 7 7 6 4 4 4 4 3 2 3 3 3 3 3 3 2 1 0 0 0 0 0 0 0 0 0 0 0 0 0 1 3 3 3
2 2 4 7 10 10 9 7 5 4 3 2 1 2 2 3 3 3 3 3 3 2 2 3 2 1 0 0 0 0 0 0 0 0 0 0 0 0 1 2 3 3 3
2 2 3 4 5 7 7 5 3 1 1 0 0 0 2 3 4 3 2 2 3 2 1 1 1 0 0 0 0 0 0 0 0 0 0 0 0 0 1 2 3 3 3
1 1 2 2 4 5 6 4 3 1 0 0 1 1 2 3 3 2 1 1 2 1 1 1 0 0 0 0 0 0 0 0 0 0 0 1 1 1 1 2 3 4 4
1 1 1 1 3 4 5 5 5 3 1 1 2 2 3 3 3 1 0 1 1 1 0 0 0 0 0 0 0 0 0 0 0 0 0 1 2 2 2 3 4 5 6
2 2 2 1 1 3 4 6 7 5 3 2 3 3 3 3 3 1 1 2 2 1 0 0 0 0 0 0 0 0 0 0 0 0 0 1 2 2 3 4 6 6 6
1 2 2 2 1 2 3 5 5 3 2 2 3 3 3 3 3 2 2 2 2 1 0 0 0 0 0 0 0 0 0 0 0 0 0 0 1 2 4 6 7 7 7
0 1 1 1 2 2 3 4 3 1 0 1 2 3 3 3 3 3 2 2 1 1 0 0 0 0 0 0 0 0 0 0 0 0 0 0 1 2 4 6 7 6 7
0 1 1 1 1 2 3 3 3 1 0 1 2 2 2 2 3 3 2 1 1 1 1 0 0 0 0 0 0 0 0 0 0 0 0 0 0 1 3 5 6 6 7
1 2 2 1 1 2 2 2 3 2 0 1 2 2 1 1 2 3 2 1 1 2 1 0 0 0 0 0 0 0 0 0 0 0 0 0 0 0 1 3 5 6 6
3 3 3 2 2 2 2 2 2 1 0 1 2 2 1 0 1 1 1 1 1 1 1 0 0 0 0 0 0 0 0 0 0 0 0 0 0 0 1 2 4 5 5
3 3 3 3 3 3 3 1 1 0 0 0 1 1 0 0 0 0 0 0 0 0 0 0 0 0 0 0 0 0 0 0 0 0 0 0 0 0 1 2 3 3 4
3 3 3 2 2 3 3 2 1 0 0 0 0 0 0 0 0 0 0 0 0 0 0 0 0 0 0 0 0 0 0 0 0 0 0 0 0 0 1 2 3 3 3
3 3 3 1 1 3 3 3 1 1 0 0 0 0 0 0 0 0 0 0 0 0 0 0 0 0 0 0 0 0 0 0 0 0 0 0 0 0 1 2 3 3 2
2 2 2 1 1 2 3 3 3 2 1 0 0 0 0 0 0 0 0 0 0 0 0 0 0 0 0 0 0 0 0 0 0 0 0 0 0 0 1 2 2 1 1
1 1 1 1 1 2 3 3 3 2 1 0 0 0 0 0 0 0 0 0 0 0 0 0 0 0 0 0 0 0 0 0 0 0 0 0 0 0 0 1 1 0 0
0 0 0 0 0 1 1 2 3 2 1 0 0 0 0 0 0 0 0 0 0 0 0 0 0 0 0 0 0 0 0 0 0 0 0 0 0 0 0 0 0 0 0
0 0 0 0 0 0 0 1 2 2 1 0 0 0 0 0 0 0 0 0 0 0 0 0 0 0 0 0 0 0 0 0 0 0 0 0 0 0 0 0 0 0 0
0 0 0 0 0 0 0 0 1 1 0 0 0 0 0 0 0 0 0 0 0 0 0 0 0 0 0 0 0 0 0 0 0 0 0 0 0 0 0 0 0 0 0
Wind_Speed
4 4 5 7 8 9 9 10 10 11 11 11 12 12 12 12 12 12 13 13 13 13 13 13 14 14 14 14 14 15 15 15 15 15 15 15 15 15 15 15 13 11 17
5 5 5 7 9 10 10 10 10 11 11 11 12 12 12 12 12 13 13 13 13 13 14 13 13 13 14 14 13 13 13 13 13 13 12 12 13 14 15 14 13 10 16
6 6 5 8 9 10 10 10 11 11 11 11 11 11 12 12 12 12 13 13 13 13 13 13 13 13 13 13 12 12 11 10 9 9 9 6 9 14 14 14 14 15 15
5 6 5 8 10 11 11 11 11 11 11 10 11 11 11 12 12 12 13 13 13 13 13 13 13 13 12 12 11 10 10 8 8 7 5 6 7 12 14 14 14 14 14
6 5 6 9 10 11 11 11 11 11 11 11 11 11 11 12 12 12 13 13 12 12 12 12 12 12 11 10 10 9 9 8 8 6 5 6 6 12 13 13 13 13 14
6 6 7 10 10 10 10 10 11 11 11 11 11 11 11 11 11 12 12 12 12 12 12 12 12 11 10 9 9 9 8 8 6 4 5 6 6 11 13 13 13 13 14
6 6 6 9 10 10 11 11 11 11 11 11 11 10 11 11 11 11 12 12 12 12 11 11 11 11 10 9 9 8 8 8 4 5 5 5 7 11 12 12 12 12 13
7 7 6 9 9 9 10 10 10 11 11 11 10 10 10 10 11 11 11 11 11 12 11 11 11 10 10 9 8 8 7 6 5 5 5 5 8 10 11 11 11 11 11
7 7 6 5 6 8 9 10 10 10 10 10 10 10 10 10 10 11 11 10 11 11 11 11 10 10 9 9 8 8 7 7 4 4 6 4 8 9 10 10 10 10 10
7 6 5 5 5 4 5 8 9 9 9 9 9 9 9 9 9 10 10 10 10 10 10 10 9 9 8 8 7 7 6 5 3 4 3 4 8 9 9 9 9 9 9
6 5 5 4 4 4 4 6 7 8 8 8 7 8 7 4 5 6 8 9 9 9 9 8 8 7 7 6 7 6 4 2 3 3 3 6 8 8 8 8 8 8 8
4 4 4 4 4 3 3 3 3 3 4 4 4 3 3 4 4 5 7 8 8 8 7 7 6 5 4 2 4 5 2 3 3 3 3 6 6 7 7 7 7 8 8
3 4 3 3 3 3 2 3 2 2 2 3 4 3 3 3 3 3 3 3 4 4 3 3 3 2 3 3 2 3 3 3 2 2 3 6 5 6 7 7 7 8 8
4 4 3 3 3 3 3 2 2 2 2 2 2 3 2 2 2 2 2 2 2 2 2 2 1 2 3 3 3 3 3 3 2 2 3 6 5 5 6 7 7 7 7
4 4 3 3 2 2 3 2 3 2 2 2 2 2 3 2 2 2 2 1 2 2 1 2 2 2 3 3 3 3 3 3 3 3 2 5 5 5 6 6 6 6 6
3 3 3 3 3 3 2 2 2 2 2 2 2 3 3 2 2 2 2 1 2 1 1 1 2 2 2 2 3 3 3 3 3 3 2 3 5 5 5 6 6 5 5
3 3 3 3 3 3 3 2 2 2 2 2 2 2 3 3 2 2 2 2 1 1 1 1 2 2 2 2 3 3 3 3 3 3 3 2 2 4 5 5 6 5 5
3 3 3 3 3 3 3 2 2 2 2 2 2 2 3 3 2 2 2 1 1 1 1 1 1 2 2 2 2 2 2 2 2 2 2 2 2 2 3 5 6 6 5
3 3 3 3 2 2 2 2 2 2 2 2 2 2 2 3 2 1 1 1 1 1 1 1 1 1 1 1 1 2 2 1 1 2 2 2 2 2 2 4 6 6 6
4 3 3 3 3 2 2 2 2 2 2 2 2 2 3 2 2 2 1 1 1 1 1 1 1 1 1 1 1 2 2 1 1 1 1 1 1 1 2 2 2 3 5
4 3 3 3 2 2 1 1 1 1 1 2 2 2 2 2 2 2 1 1 1 1 0 1 1 1 1 1 1 1 1 1 1 1 1 1 1 1 1 2 1 1 1
3 3 2 2 1 1 1 0 0 1 1 1 2 2 2 2 2 1 1 1 0 0 0 0 1 1 0 0 1 0 0 1 1 0 0 0 0 0 1 1 1 1 1
2 2 1 1 1 1 1 1 1 1 1 1 1 1 1 1 1 1 0 0 0 0 0 0 1 1 1 1 0 1 1 2 1 1 1 0 0 0 0 1 1 1 1
2 2 2 1 1 1 1 1 1 1 1 1 1 0 1 1 1 1 1 1 0 0 0 1 0 0 1 1 1 1 1 1 1 1 1 1 1 1 0 0 1 1 1
2 2 1 1 1 1 1 1 1 0 0 0 1 1 1 1 1 1 0 0 0 0 0 0 0 0 1 1 1 1 1 1 1 1 2 1 1 1 1 1 1 1 1
2 2 2 2 1 1 1 1 0 0 0 1 1 1 0 1 1 0 1 1 0 0 1 1 1 1 1 1 1 1 1 1 1 1 2 2 2 2 1 1 1 1 1
Wind_Direction
90 100 83 82 84 82 81 81 79 78 74 72 73 73 73 71 72 75 76 75 73 73 74 76 76 74 71 71 72 72 72 72 72 72 70 71 73 76 77 75 75 74 78
99 104 89 87 87 85 83 82 79 79 76 74 73 72 71 71 72 72 73 74 73 72 72 73 73 73 73 71 72 74 75 75 75 74 73 70 71 74 75 71 75 79 80
90 101 99 87 88 86 83 81 80 80 79 76 75 73 72 71 72 72 71 71 71 70 70 70 70 71 71 71 71 73 75 73 71 74 79 77 75 77 77 77 79 80 81
92 101 98 88 88 86 84 81 80 79 80 78 76 74 74 73 72 70 70 69 68 69 68 68 69 70 69 70 70 69 65 60 59 65 75 75 76 80 80 80 81 81 81
88 94 94 89 87 86 83 81 80 79 78 77 76 73 74 73 73 72 69 68 69 69 69 69 67 68 67 68 68 64 53 45 53 61 68 72 74 82 82 81 81 81 81
84 88 94 91 90 86 83 81 80 79 78 76 76 72 72 72 73 72 69 67 68 69 70 70 67 67 66 64 63 55 41 38 46 61 68 72 77 85 85 83 80 81 82
81 87 97 91 89 86 85 82 80 77 78 77 76 74 73 72 73 72 68 68 69 69 71 72 69 65 63 59 54 45 36 34 46 62 68 70 79 87 88 87 85 84 84
79 82 88 87 86 83 83 82 80 77 76 75 74 73 72 72 72 73 70 68 70 69 69 69 67 64 61 55 44 35 29 34 53 69 72 73 82 89 91 89 88 86 85
74 77 77 74 80 79 79 78 79 79 77 74 71 70 68 69 71 71 68 68 69 69 67 66 63 59 56 51 41 31 24 24 33 59 74 73 82 92 94 92 88 89 89
69 68 70 72 72 75 83 79 78 76 74 72 71 69 67 65 66 65 63 64 64 64 63 63 60 55 52 46 36 25 16 18 47 59 64 75 83 91 94 94 91 90 92
65 58 60 66 65 70 79 84 82 77 72 71 70 69 68 69 67 63 61 60 61 61 59 60 58 52 44 37 26 17 12 34 50 61 65 78 85 90 93 95 93 90 91
79 65 52 60 62 65 73 80 87 87 83 75 70 72 64 58 61 65 57 60 60 59 56 53 48 42 28 20 14 13 23 43 47 53 67 81 91 93 96 99 97 92 92
102 84 61 53 57 61 68 76 73 88 88 82 76 67 73 74 72 69 65 55 57 55 48 40 31 16 21 21 19 18 20 40 52 46 51 74 91 96 99 104 102 98 96
78 81 77 60 61 61 62 73 67 72 80 75 73 71 74 78 73 71 67 55 44 42 28 17 13 18 21 26 27 30 29 30 56 51 46 61 75 97 104 106 105 105 104
65 58 57 61 65 69 66 61 68 63 74 80 74 69 67 73 83 80 75 63 53 41 23 3 4 25 29 23 19 30 36 33 50 61 46 53 63 77 96 107 110 110 114
78 71 63 60 49 55 70 72 72 69 69 75 72 64 64 65 73 81 78 64 52 42 19 10 12 28 32 32 21 23 31 32 39 54 62 48 53 64 77 90 98 110 108
82 79 72 71 54 53 60 71 75 76 75 75 74 68 68 65 62 60 69 58 39 31 20 13 26 41 43 43 29 20 22 27 31 39 50 52 46 54 65 77 82 92 103
80 80 72 70 59 51 53 58 70 69 68 67 71 73 68 66 60 53 59 56 32 29 35 24 31 48 45 42 31 18 17 19 24 39 48 43 38 51 56 65 70 68 79
87 85 77 68 65 56 53 60 69 76 68 56 53 53 53 57 54 53 63 55 39 42 48 24 26 53 55 42 35 23 12 16 7 34 49 47 37 54 72 74 70 62 57
91 86 81 70 54 59 62 61 62 71 70 59 56 52 50 45 44 36 61 60 39 52 40 44 54 44 62 67 46 24 354 358 26 38 36 49 31 54 79 85 79 66 56
93 86 81 74 57 63 79 95 96 77 62 49 45 58 63 48 47 47 35 54 25 67 53 22 66 84 44 55 64 7 330 343 53 48 25 35 36 48 84 91 89 79 66
107 103 98 92 84 69 65 73 125 105 84 67 46 34 62 52 49 42 50 70 23 31 105 86 78 70 309 24 107 124 271 309 317 305 63 59 327 67 110 112 111 103 95
92 97 96 93 86 67 60 66 72 77 68 58 43 13 47 64 51 51 50 50 52 109 173 185 157 167 198 280 354 152 177 221 280 281 258 191 324 19 154 162 138 121 122
76 73 77 66 52 43 81 102 121 132 149 167 158 82 343 83 66 31 34 29 62 69 178 232 130 193 173 211 259 282 258 206 159 275 284 253 208 186 202 67 144 163 152
89 82 79 76 62 40 32 66 128 108 9 54 102 89 20 6 83 69 47 4 12 218 209 222 222 199 207 211 217 247 278 289 245 182 245 268 284 231 206 223 198 194 169
84 78 65 64 56 31 22 46 121 184 130 100 132 143 68 345 333 5 357 319 279 262 236 222 213 203 231 245 241 233 218 219 218 204 228 245 261 256 230 224 211 197 180